Hourly Data Report for October 04, 2017

All times are specified in Local Standard Time (LST). Add 1 hour to adjust for Daylight Saving Time where and when it is observed.

KITCHENER/WATERLOO
ONTARIO

43°27'39.000" N
80°22'43.000" W
321.60 m
6144239
71368
YKF

Download Data

Hourly Data (October 2017)
Hourly Data Report for October 4, 2017
Temp Definition
°C
Dew Point Temp Definition
°C
Rel Hum Definition
%
Wind Dir Definition
10's deg

Wind Spd Definition
km/h
Visibility Definition
km
Stn Press Definition
kPa
Hmdx Definition


Wind Chill Definition


Weather Definition


TIME
00:00 Legend Double Dagger 19.0 11.3 61 20 21 16.1 98.87     LegendNANA
01:00 Legend Double Dagger 18.8 11.9 64 20 17 16.1 98.85     LegendNANA
02:00 Legend Double Dagger 18.9 12.5 66 20 15 16.1 98.80     LegendNANA
03:00 Legend Double Dagger 19.4 13.4 68 20 15 16.1 98.73     LegendNANA
04:00 Legend Double Dagger 19.7 14.4 71 20 11 16.1 98.71     LegendNANA
05:00 Legend Double Dagger 19.5 15.0 75 20 15 16.1 98.67     LegendNANA
06:00 Legend Double Dagger 19.4 15.3 77 20 15 16.1 98.66     LegendNANA
07:00 Legend Double Dagger 19.5 15.8 79 23 15 16.1 98.65     LegendNANA
08:00 Legend Double Dagger 18.5 17.0 91 20 15 16.1 98.60     LegendNANA
09:00 Legend Double Dagger 19.9 17.7 87 21 15 16.1 98.58     LegendNANA
10:00 Legend Double Dagger 21.1 18.5 85 22 22 16.1 98.50 27   Rain
11:00 Legend Double Dagger 20.1 18.5 90 22 22 16.1 98.42 26   Rain
12:00 Legend Double Dagger 21.9 19.0 84 21 26 16.1 98.36 29   LegendNANA
13:00 Legend Double Dagger 22.2 19.0 82 22 26 16.1 98.26 29   LegendNANA
14:00 Legend Double Dagger 21.8 19.0 84 22 22 16.1 98.21 29   LegendNANA
15:00 Legend Double Dagger 22.1 19.1 83 23 21 16.1 98.14 29   LegendNANA
16:00 Legend Double Dagger 22.5 19.5 83 23 21 16.1 98.09 30   LegendNANA
17:00 Legend Double Dagger 22.3 18.9 81 25 22 16.1 98.10 29   LegendNANA
18:00 Legend Double Dagger 18.7 17.1 90 32 17 16.1 98.16     LegendNANA
19:00 Legend Double Dagger 17.6 16.3 92 31 13 16.1 98.27     LegendNANA
20:00 Legend Double Dagger 15.9 14.3 90 33 18 16.1 98.34     LegendNANA
21:00 Legend Double Dagger 13.9 13.0 94 32 9 16.1 98.36     LegendNANA
22:00 Legend Double Dagger 12.9 12.4 97 32 5 16.1 98.35     LegendNANA
23:00 Legend Double Dagger 11.5 11.2 98 33 5 16.1 98.32     LegendNANA

Notes on Data Quality.

Legend

  • E = Estimated
  • M = Missing
  • NA = Not Available
  • ‡ = Partner data that is not subject to review by the National Climate Archives
Date modified: